Glidden, IA

7:58 PM CDT on September 25, 2016 (GMT -0500)
Neu

Weather History for KCIN - October, 2013

Change the Weather History Date:

Tuesday, October 8, 2013

  Actual Average Record
Temperature  
Mean Temperature 62 °F -  
Max Temperature 77 °F 64 °F 89 °F (2010)
Min Temperature 48 °F 41 °F 19 °F (2000)
Degree Days  
Heating Degree Days 2    
Growing Degree Days 12 (Base 50)    
Moisture  
Dew Point 43 °F    
Average Humidity 52    
Maximum Humidity 76    
Minimum Humidity 24    
Precipitation  
Precipitation 0.00 in - - ()
Sea Level Pressure  
Sea Level Pressure 29.97 in    
Wind  
Wind Speed 14 mph (South)    
Max Wind Speed 28 mph    
Max Gust Speed 37 mph    
Visibility 10 miles    
Events      
Averages and records for this station are not official NWS values.
T = Trace of Precipitation, MM = Missing Value Source: NWS Daily Summary

Daily Weather History Graph

Daily Weather History Graph

Search for Another Location

Airport or City:

Trip Planner

Search our weather history database for the weather conditions in past years. The results will help you decide how hot, cold, wet, or windy it might be!

Date:

Astronomy

Oct. 08, 2013 Rise Set
Actual Time 7:24 AM CDT 6:48 PM CDT
Civil Twilight 6:56 AM CDT 7:16 PM CDT
Nautical Twilight 6:23 AM CDT 7:48 PM CDT
Astronomical Twilight 5:51 AM CDT 8:21 PM CDT
Moon 11:23 AM CDT (10/8) 9:21 PM CDT (10/8)
Length of Visible Light 12h 20m
Length of Day
11h 24m
Waxing Crescent, 16% of the Moon is Illuminated
Oct 8
Waxing Crescent
Oct 11
First Quarter
Oct 18
Full
Oct 26
Last Quarter
Nov 3
New

Hourly Weather History & Observations

Time (CDT) Temp. Dew Point Humidity Pressure Visibility Wind Dir Wind Speed Gust Speed Precip Events Conditions
12:15 AM 51.8 °F 41.0 °F 67% 30.01 in 10.0 mi SSW 9.2 mph - N/A   Clear
12:35 AM 50.0 °F 41.0 °F 71% 30.00 in 10.0 mi South 8.1 mph - N/A   Clear
12:55 AM 50.0 °F 42.8 °F 76% 30.00 in 10.0 mi South 8.1 mph - N/A   Clear
1:15 AM 50.0 °F 42.8 °F 76% 30.00 in 10.0 mi South 10.4 mph - N/A   Clear
1:35 AM 51.8 °F 42.8 °F 71% 30.00 in 10.0 mi South 10.4 mph - N/A   Clear
1:55 AM 50.0 °F 41.0 °F 71% 30.00 in 10.0 mi South 9.2 mph - N/A   Clear
2:15 AM 51.8 °F 42.8 °F 71% 30.00 in 10.0 mi South 11.5 mph - N/A   Clear
2:35 AM 51.8 °F 42.8 °F 71% 30.01 in 10.0 mi SSW 8.1 mph - N/A   Clear
2:55 AM 50.0 °F 42.8 °F 76% 30.00 in 10.0 mi South 9.2 mph - N/A   Clear
3:15 AM 50.0 °F 42.8 °F 76% 30.00 in 10.0 mi SSW 8.1 mph - N/A   Clear
3:35 AM 50.0 °F 42.8 °F 76% 30.00 in 10.0 mi SSW 8.1 mph - N/A   Clear
3:55 AM 50.0 °F 42.8 °F 76% 30.00 in 10.0 mi SSW 9.2 mph - N/A   Clear
4:15 AM 50.0 °F 42.8 °F 76% 29.99 in 10.0 mi SSW 9.2 mph - N/A   Clear
4:35 AM 50.0 °F 42.8 °F 76% 29.99 in 10.0 mi South 9.2 mph - N/A   Clear
4:55 AM 50.0 °F 42.8 °F 76% 29.99 in 10.0 mi South 10.4 mph - N/A   Clear
5:15 AM 50.0 °F 42.8 °F 76% 29.99 in 10.0 mi South 9.2 mph - N/A   Clear
5:35 AM 50.0 °F 42.8 °F 76% 29.99 in 10.0 mi South 8.1 mph - N/A   Clear
5:55 AM 50.0 °F 42.8 °F 76% 30.00 in 10.0 mi South 10.4 mph - N/A   Clear
6:15 AM 50.0 °F 42.8 °F 76% 30.00 in 10.0 mi SSW 11.5 mph - N/A   Clear
6:35 AM 50.0 °F 42.8 °F 76% 30.00 in 10.0 mi South 12.7 mph - N/A   Clear
6:55 AM 50.0 °F 41.0 °F 71% 30.00 in 10.0 mi South 11.5 mph - N/A   Clear
7:15 AM 50.0 °F 41.0 °F 71% 30.00 in 10.0 mi SSW 11.5 mph - N/A   Clear
7:35 AM 48.2 °F 41.0 °F 76% 30.00 in 10.0 mi South 10.4 mph - N/A   Clear
7:55 AM 50.0 °F 42.8 °F 76% 30.00 in 10.0 mi South 10.4 mph - N/A   Clear
8:15 AM 51.8 °F 42.8 °F 71% 30.00 in 10.0 mi South 10.4 mph 16.1 mph N/A   Clear
8:35 AM 53.6 °F 42.8 °F 67% 30.01 in 10.0 mi SSW 11.5 mph - N/A   Clear
8:55 AM 57.2 °F 42.8 °F 59% 30.00 in 10.0 mi South 12.7 mph - N/A   Light Drizzle
9:15 AM 59.0 °F 42.8 °F 55% 30.00 in 10.0 mi SSW 18.4 mph 25.3 mph N/A   Light Drizzle
9:35 AM 62.6 °F 41.0 °F 45% 29.99 in 10.0 mi SSW 20.7 mph 29.9 mph N/A   Clear
9:55 AM 64.4 °F 41.0 °F 42% 29.99 in 10.0 mi SSW 20.7 mph - N/A   Clear
10:15 AM 66.2 °F 41.0 °F 40% 29.99 in 10.0 mi SSW 21.9 mph 32.2 mph N/A   Clear
10:35 AM 66.2 °F 41.0 °F 40% 29.99 in 10.0 mi SSW 23.0 mph 31.1 mph N/A   Clear
10:55 AM 66.2 °F 41.0 °F 40% 29.98 in 10.0 mi SSW 25.3 mph 33.4 mph N/A   Clear
11:15 AM 68.0 °F 41.0 °F 37% 29.98 in 10.0 mi SSW 24.2 mph - N/A   Clear
11:35 AM 69.8 °F 41.0 °F 35% 29.98 in 10.0 mi SSW 21.9 mph 36.8 mph N/A   Clear
11:55 AM 71.6 °F 41.0 °F 33% 29.97 in 10.0 mi SSW 19.6 mph 28.8 mph N/A   Clear
12:15 PM 71.6 °F 39.2 °F 31% 29.97 in 10.0 mi SSW 26.5 mph 33.4 mph N/A   Clear
12:35 PM 73.4 °F 39.2 °F 29% 29.96 in 10.0 mi South 27.6 mph 33.4 mph N/A   Clear
12:55 PM 73.4 °F 39.2 °F 29% 29.96 in 10.0 mi SSW 24.2 mph 33.4 mph N/A   Clear
1:15 PM 75.2 °F 39.2 °F 27% 29.95 in 10.0 mi South 23.0 mph 29.9 mph N/A   Clear
1:35 PM 75.2 °F 39.2 °F 27% 29.94 in 10.0 mi South 23.0 mph 33.4 mph N/A   Clear
1:55 PM 77.0 °F 37.4 °F 24% 29.93 in 10.0 mi SSW 27.6 mph 35.7 mph N/A   Clear
2:15 PM 77.0 °F 39.2 °F 26% 29.93 in 10.0 mi South 21.9 mph 32.2 mph N/A   Clear
2:35 PM 77.0 °F 39.2 °F 26% 29.93 in 10.0 mi South 19.6 mph 33.4 mph N/A   Clear
2:55 PM 77.0 °F 41.0 °F 28% 29.93 in 10.0 mi South 24.2 mph 32.2 mph N/A   Clear
3:15 PM 77.0 °F 41.0 °F 28% 29.92 in 10.0 mi South 25.3 mph 32.2 mph N/A   Clear
3:35 PM 77.0 °F 41.0 °F 28% 29.92 in 10.0 mi South 26.5 mph 32.2 mph N/A   Clear
3:55 PM 77.0 °F 41.0 °F 28% 29.91 in 10.0 mi South 24.2 mph 32.2 mph N/A   Clear
4:15 PM 77.0 °F 41.0 °F 28% 29.92 in 10.0 mi South 23.0 mph 28.8 mph N/A   Clear
4:35 PM 77.0 °F 41.0 °F 28% 29.91 in 10.0 mi South 24.2 mph 34.5 mph N/A   Clear
4:55 PM 75.2 °F 42.8 °F 31% 29.91 in 10.0 mi South 23.0 mph 32.2 mph N/A   Clear
5:15 PM 75.2 °F 41.0 °F 29% 29.92 in 10.0 mi South 19.6 mph 27.6 mph N/A   Clear
5:35 PM 73.4 °F 42.8 °F 33% 29.91 in 10.0 mi South 20.7 mph - N/A   Clear
5:55 PM 71.6 °F 42.8 °F 35% 29.92 in 10.0 mi South 21.9 mph 29.9 mph N/A   Clear
6:15 PM 71.6 °F 44.6 °F 38% 29.92 in 10.0 mi South 15.0 mph - N/A   Clear
6:35 PM 69.8 °F 44.6 °F 40% 29.92 in 10.0 mi South 16.1 mph 23.0 mph N/A   Clear
6:55 PM 68.0 °F 44.6 °F 43% 29.92 in 10.0 mi SSE 16.1 mph 21.9 mph N/A   Clear
7:15 PM 68.0 °F 44.6 °F 43% 29.93 in 10.0 mi South 17.3 mph - N/A   Clear
7:35 PM 66.2 °F 44.6 °F 46% 29.93 in 10.0 mi South 15.0 mph - N/A   Clear
7:55 PM 66.2 °F 46.4 °F 49% 29.94 in 10.0 mi South 15.0 mph - N/A   Clear
8:15 PM 64.4 °F 46.4 °F 52% 29.94 in 10.0 mi South 11.5 mph 17.3 mph N/A   Clear
8:35 PM 64.4 °F 46.4 °F 52% 29.94 in 10.0 mi South 13.8 mph - N/A   Clear
8:55 PM 64.4 °F 46.4 °F 52% 29.94 in 10.0 mi South 16.1 mph 21.9 mph N/A   Clear
9:15 PM 64.4 °F 46.4 °F 52% 29.94 in 10.0 mi South 18.4 mph 25.3 mph N/A   Clear
9:35 PM 64.4 °F 46.4 °F 52% 29.95 in 10.0 mi South 17.3 mph 26.5 mph N/A   Clear
9:55 PM 64.4 °F 46.4 °F 52% 29.95 in 10.0 mi South 17.3 mph 25.3 mph N/A   Clear
10:15 PM 64.4 °F 46.4 °F 52% 29.96 in 10.0 mi South 15.0 mph 24.2 mph N/A   Clear
10:35 PM 62.6 °F 46.4 °F 55% 29.96 in 10.0 mi South 15.0 mph 21.9 mph N/A   Clear
10:55 PM 62.6 °F 44.6 °F 52% 29.96 in 10.0 mi South 17.3 mph - N/A   Clear
11:15 PM 62.6 °F 46.4 °F 55% 29.96 in 10.0 mi South 18.4 mph 24.2 mph N/A   Clear
11:35 PM 60.8 °F 46.4 °F 59% 29.97 in 10.0 mi South 15.0 mph - N/A   Clear
11:55 PM 60.8 °F 46.4 °F 59% 29.98 in 10.0 mi South 15.0 mph - N/A   Clear